| time (UTC) | temp F | wind direction | speed MPH | gust MPH | rain 1hr in | rain 24hr in | rain mn in | humidity % | barometer mb |
| 20260509002534 | 54 | 101 | 8.0 | 20.0 | 0.00 | 0.00 | 0.00 | 66 | 1027.8 |
| 20260509002034 | 54 | 92 | 9.0 | 20.0 | 0.00 | 0.00 | 0.00 | 66 | 1027.9 |
| 20260509001545 | 54 | 49 | 9.0 | 16.0 | 0.00 | 0.00 | 0.00 | 67 | 1027.9 |
| 20260509001034 | 54 | 82 | 8.0 | 15.0 | 0.00 | 0.00 | 0.00 | 67 | 1027.8 |
| 20260509000536 | 54 | 82 | 7.0 | 17.0 | 0.00 | 0.00 | 0.00 | 67 | 1027.8 |
| 20260509000047 | 53 | 35 | 7.0 | 17.0 | 0.00 | 0.00 | 0.00 | 67 | 1027.7 |
| 20260508235535 | 53 | 109 | 7.0 | 19.0 | 0.00 | 0.00 | 0.00 | 67 | 1027.7 |
| 20260508235036 | 53 | 47 | 8.0 | 19.0 | 0.00 | 0.00 | 0.00 | 67 | 1027.6 |
| 20260508234539 | 53 | 77 | 6.0 | 16.0 | 0.00 | 0.00 | 0.00 | 67 | 1027.7 |
| 20260508234039 | 53 | 39 | 8.0 | 16.0 | 0.00 | 0.00 | 0.00 | 67 | 1027.5 |
| 20260508233535 | 53 | 106 | 8.0 | 16.0 | 0.00 | 0.00 | 0.00 | 68 | 1027.6 |
| 20260508233101 | 53 | 85 | 7.0 | 16.0 | 0.00 | 0.00 | 0.00 | 68 | 1027.6 |
| 20260508232534 | 52 | 68 | 7.0 | 16.0 | 0.00 | 0.00 | 0.00 | 68 | 1027.5 |
| 20260508232034 | 52 | 66 | 8.0 | 16.0 | 0.00 | 0.00 | 0.00 | 68 | 1027.6 |
| 20260508231552 | 52 | 96 | 7.0 | 16.0 | 0.00 | 0.00 | 0.00 | 68 | 1027.6 |
| 20260508231036 | 52 | 82 | 5.0 | 16.0 | 0.00 | 0.00 | 0.00 | 68 | 1027.6 |
| 20260508230539 | 52 | 60 | 8.0 | 16.0 | 0.00 | 0.00 | 0.00 | 68 | 1027.4 |
| 20260508230050 | 52 | 55 | 6.0 | 18.0 | 0.00 | 0.00 | 0.00 | 68 | 1027.4 |
| 20260508225536 | 53 | 117 | 7.0 | 18.0 | 0.00 | 0.00 | 0.00 | 67 | 1027.6 |
| 20260508225039 | 53 | 83 | 8.0 | 18.0 | 0.00 | 0.00 | 0.00 | 67 | 1027.6 |
| 20260508224605 | 53 | 62 | 6.0 | 16.0 | 0.00 | 0.00 | 0.00 | 67 | 1027.4 |
| 20260508224037 | 53 | 64 | 7.0 | 16.0 | 0.00 | 0.00 | 0.00 | 67 | 1027.3 |
| 20260508223537 | 53 | 82 | 5.0 | 20.0 | 0.00 | 0.00 | 0.00 | 67 | 1027.4 |
| 20260508223047 | 53 | 104 | 6.0 | 20.0 | 0.00 | 0.00 | 0.00 | 67 | 1027.3 |
| 20260508222536 | 53 | 99 | 5.0 | 12.0 | 0.00 | 0.00 | 0.00 | 67 | 1027.3 |
| 20260508222036 | 53 | 124 | 5.0 | 12.0 | 0.00 | 0.00 | 0.00 | 67 | 1027.3 |
| 20260508221552 | 53 | 44 | 5.0 | 15.0 | 0.00 | 0.00 | 0.00 | 67 | 1027.1 |
| 20260508221037 | 53 | 62 | 5.0 | 15.0 | 0.00 | 0.00 | 0.00 | 67 | 1027.1 |
| 20260508220536 | 53 | 70 | 5.0 | 14.0 | 0.00 | 0.00 | 0.00 | 67 | 1027.1 |
| 20260508220055 | 53 | 48 | 5.0 | 11.0 | 0.00 | 0.00 | 0.00 | 66 | 1027.1 |
| 20260508215536 | 53 | 356 | 3.0 | 11.0 | 0.00 | 0.00 | 0.00 | 66 | 1027.2 |
| 20260508215038 | 53 | 64 | 3.0 | 10.0 | 0.00 | 0.00 | 0.00 | 67 | 1027.1 |
| 20260508214547 | 53 | 55 | 3.0 | 10.0 | 0.00 | 0.00 | 0.00 | 67 | 1027.2 |
| 20260508214040 | 53 | 37 | 3.0 | 14.0 | 0.00 | 0.00 | 0.00 | 67 | 1027.2 |
| 20260508213540 | 53 | 41 | 3.0 | 14.0 | 0.00 | 0.00 | 0.00 | 66 | 1027.1 |
| 20260508213042 | 53 | 97 | 3.0 | 14.0 | 0.00 | 0.00 | 0.00 | 66 | 1026.9 |
| 20260508212540 | 53 | 45 | 3.0 | 12.0 | 0.00 | 0.00 | 0.00 | 66 | 1026.8 |
| 20260508212037 | 53 | 91 | 4.0 | 12.0 | 0.00 | 0.00 | 0.00 | 66 | 1026.9 |
| 20260508211541 | 53 | 75 | 3.0 | 12.0 | 0.00 | 0.00 | 0.00 | 66 | 1026.8 |
| 20260508211037 | 53 | 33 | 3.0 | 10.0 | 0.00 | 0.00 | 0.00 | 66 | 1026.8 |
| 20260508210537 | 54 | 59 | 3.0 | 11.0 | 0.00 | 0.00 | 0.00 | 65 | 1026.8 |
| 20260508210050 | 54 | 49 | 4.0 | 11.0 | 0.00 | 0.00 | 0.00 | 65 | 1026.9 |
| 20260508205536 | 54 | 79 | 4.0 | 10.0 | 0.00 | 0.00 | 0.00 | 65 | 1026.7 |
| 20260508205036 | 54 | 53 | 4.0 | 9.0 | 0.00 | 0.00 | 0.00 | 65 | 1026.8 |
| 20260508204551 | 54 | 93 | 4.0 | 9.0 | 0.00 | 0.00 | 0.00 | 65 | 1026.9 |
| 20260508204036 | 54 | 47 | 4.0 | 10.0 | 0.00 | 0.00 | 0.00 | 64 | 1026.8 |
| 20260508203536 | 54 | 36 | 2.0 | 10.0 | 0.00 | 0.00 | 0.00 | 64 | 1026.8 |
| 20260508203055 | 54 | 104 | 4.0 | 10.0 | 0.00 | 0.00 | 0.00 | 64 | 1026.8 |
| 20260508202536 | 54 | 35 | 4.0 | 10.0 | 0.00 | 0.00 | 0.00 | 64 | 1026.6 |
| 20260508202037 | 54 | 7 | 3.0 | 12.0 | 0.00 | 0.00 | 0.00 | 64 | 1026.7 |
| 20260508201540 | 54 | 29 | 3.0 | 13.0 | 0.00 | 0.00 | 0.00 | 64 | 1026.7 |
| 20260508201037 | 55 | 56 | 3.0 | 13.0 | 0.00 | 0.00 | 0.00 | 63 | 1026.8 |
| 20260508200537 | 55 | 51 | 3.0 | 14.0 | 0.00 | 0.00 | 0.00 | 63 | 1026.6 |
| 20260508200050 | 55 | 91 | 2.0 | 14.0 | 0.00 | 0.00 | 0.00 | 63 | 1026.7 |
| 20260508195536 | 55 | 25 | 3.0 | 11.0 | 0.00 | 0.00 | 0.00 | 63 | 1026.5 |
| 20260508195039 | 55 | 10 | 3.0 | 13.0 | 0.00 | 0.00 | 0.00 | 62 | 1026.5 |
| 20260508194555 | 55 | 41 | 4.0 | 13.0 | 0.00 | 0.00 | 0.00 | 62 | 1026.5 |
| 20260508194036 | 55 | 81 | 3.0 | 12.0 | 0.00 | 0.00 | 0.00 | 62 | 1026.4 |
| 20260508193536 | 55 | 5 | 3.0 | 12.0 | 0.00 | 0.00 | 0.00 | 62 | 1026.4 |
| 20260508193045 | 55 | 357 | 3.0 | 12.0 | 0.00 | 0.00 | 0.00 | 62 | 1026.4 |
| 20260508192536 | 55 | 102 | 2.0 | 12.0 | 0.00 | 0.00 | 0.00 | 62 | 1026.4 |
| 20260508192037 | 55 | 114 | 5.0 | 17.0 | 0.00 | 0.00 | 0.00 | 61 | 1026.4 |
| 20260508191551 | 56 | 73 | 5.0 | 17.0 | 0.00 | 0.00 | 0.00 | 61 | 1026.3 |
| 20260508191036 | 56 | 347 | 4.0 | 13.0 | 0.00 | 0.00 | 0.00 | 61 | 1026.2 |
| 20260508190540 | 56 | 45 | 4.0 | 15.0 | 0.00 | 0.00 | 0.00 | 61 | 1026.3 |
| 20260508190045 | 56 | 19 | 5.0 | 15.0 | 0.00 | 0.00 | 0.00 | 61 | 1026.4 |
| 20260508185536 | 56 | 19 | 5.0 | 18.0 | 0.00 | 0.00 | 0.00 | 61 | 1026.2 |
| 20260508185040 | 56 | 72 | 5.0 | 18.0 | 0.00 | 0.00 | 0.00 | 61 | 1026.4 |
| 20260508184553 | 56 | 118 | 6.0 | 18.0 | 0.00 | 0.00 | 0.00 | 60 | 1026.4 |
| 20260508184038 | 56 | 56 | 5.0 | 17.0 | 0.00 | 0.00 | 0.00 | 60 | 1026.2 |
| 20260508183536 | 56 | 68 | 7.0 | 17.0 | 0.00 | 0.00 | 0.00 | 60 | 1026.2 |
| 20260508183053 | 56 | 112 | 6.0 | 17.0 | 0.00 | 0.00 | 0.00 | 60 | 1026.2 |
| 20260508182540 | 56 | 95 | 6.0 | 17.0 | 0.00 | 0.00 | 0.00 | 60 | 1026.2 |
| 20260508182036 | 56 | 79 | 6.0 | 17.0 | 0.00 | 0.00 | 0.00 | 60 | 1026.2 |
| 20260508181551 | 57 | 35 | 7.0 | 19.0 | 0.00 | 0.00 | 0.00 | 60 | 1026.2 |
| 20260508181036 | 57 | 31 | 6.0 | 19.0 | 0.00 | 0.00 | 0.00 | 59 | 1026.1 |
| 20260508180537 | 57 | 112 | 7.0 | 19.0 | 0.00 | 0.00 | 0.00 | 59 | 1026.0 |
| 20260508180049 | 57 | 137 | 7.0 | 19.0 | 0.00 | 0.00 | 0.00 | 59 | 1026.0 |
| 20260508175536 | 57 | 12 | 9.0 | 19.0 | 0.00 | 0.00 | 0.00 | 58 | 1026.1 |
| 20260508175037 | 57 | 29 | 8.0 | 21.0 | 0.00 | 0.00 | 0.00 | 58 | 1026.1 |
| 20260508174603 | 57 | 62 | 10.0 | 22.0 | 0.00 | 0.00 | 0.00 | 58 | 1026.0 |
| 20260508174038 | 58 | 58 | 10.0 | 22.0 | 0.00 | 0.00 | 0.00 | 58 | 1025.8 |
| 20260508173536 | 58 | 64 | 8.0 | 19.0 | 0.00 | 0.00 | 0.00 | 57 | 1026.1 |
| 20260508173048 | 58 | 70 | 9.0 | 26.0 | 0.00 | 0.00 | 0.00 | 57 | 1026.1 |
| 20260508172536 | 58 | 97 | 10.0 | 26.0 | 0.00 | 0.00 | 0.00 | 57 | 1026.1 |
| 20260508172038 | 58 | 87 | 7.0 | 18.0 | 0.00 | 0.00 | 0.00 | 57 | 1026.3 |
| 20260508171539 | 58 | 100 | 6.0 | 18.0 | 0.00 | 0.00 | 0.00 | 57 | 1026.3 |
| 20260508171036 | 58 | 62 | 7.0 | 19.0 | 0.00 | 0.00 | 0.00 | 56 | 1026.3 |
| 20260508170536 | 58 | 79 | 8.0 | 20.0 | 0.00 | 0.00 | 0.00 | 56 | 1026.1 |
| 20260508170052 | 58 | 79 | 9.0 | 20.0 | 0.00 | 0.00 | 0.00 | 56 | 1026.0 |
| 20260508165536 | 58 | 61 | 7.0 | 20.0 | 0.00 | 0.00 | 0.00 | 56 | 1026.2 |
| 20260508165036 | 58 | 54 | 9.0 | 19.0 | 0.00 | 0.00 | 0.00 | 56 | 1026.1 |
| 20260508164543 | 58 | 59 | 9.0 | 19.0 | 0.00 | 0.00 | 0.00 | 56 | 1026.1 |
| 20260508164036 | 58 | 110 | 7.0 | 19.0 | 0.00 | 0.00 | 0.00 | 56 | 1026.2 |
| 20260508163537 | 59 | 81 | 7.0 | 19.0 | 0.00 | 0.00 | 0.00 | 56 | 1026.0 |
| 20260508163043 | 59 | 96 | 7.0 | 19.0 | 0.00 | 0.00 | 0.00 | 56 | 1026.2 |
| 20260508162537 | 59 | 49 | 9.0 | 19.0 | 0.00 | 0.00 | 0.00 | 56 | 1026.1 |
| 20260508162035 | 59 | 47 | 8.0 | 17.0 | 0.00 | 0.00 | 0.00 | 55 | 1025.9 |
| 20260508161545 | 59 | 103 | 8.0 | 24.0 | 0.00 | 0.00 | 0.00 | 55 | 1026.0 |
| 20260508161037 | 59 | 71 | 9.0 | 24.0 | 0.00 | 0.00 | 0.00 | 55 | 1026.0 |
| 20260508160536 | 59 | 101 | 7.0 | 19.0 | 0.00 | 0.00 | 0.00 | 55 | 1025.9 |
| 20260508160048 | 59 | 4 | 8.0 | 17.0 | 0.00 | 0.00 | 0.00 | 55 | 1025.9 |
| 20260508155537 | 59 | 83 | 9.0 | 19.0 | 0.00 | 0.00 | 0.00 | 55 | 1025.8 |
| 20260508155036 | 59 | 4 | 9.0 | 19.0 | 0.00 | 0.00 | 0.00 | 54 | 1026.0 |
| 20260508154547 | 59 | 85 | 7.0 | 19.0 | 0.00 | 0.00 | 0.00 | 54 | 1026.0 |
| 20260508154036 | 59 | 78 | 9.0 | 19.0 | 0.00 | 0.00 | 0.00 | 54 | 1026.1 |
| 20260508153536 | 59 | 116 | 7.0 | 19.0 | 0.00 | 0.00 | 0.00 | 53 | 1026.0 |
| 20260508153046 | 59 | 113 | 8.0 | 16.0 | 0.00 | 0.00 | 0.00 | 53 | 1026.1 |
| 20260508152536 | 59 | 89 | 5.0 | 16.0 | 0.00 | 0.00 | 0.00 | 53 | 1026.1 |
| 20260508152036 | 60 | 117 | 7.0 | 16.0 | 0.00 | 0.00 | 0.00 | 52 | 1026.2 |
| 20260508151543 | 60 | 82 | 8.0 | 16.0 | 0.00 | 0.00 | 0.00 | 52 | 1026.2 |
| 20260508151035 | 60 | 85 | 7.0 | 16.0 | 0.00 | 0.00 | 0.00 | 52 | 1026.3 |
| 20260508150537 | 60 | 54 | 6.0 | 16.0 | 0.00 | 0.00 | 0.00 | 51 | 1026.3 |
| 20260508150050 | 60 | 76 | 7.0 | 15.0 | 0.00 | 0.00 | 0.00 | 52 | 1026.5 |
| 20260508145537 | 60 | 81 | 7.0 | 15.0 | 0.00 | 0.00 | 0.00 | 52 | 1026.4 |
| 20260508145037 | 60 | 75 | 5.0 | 15.0 | 0.00 | 0.00 | 0.00 | 52 | 1026.5 |
| 20260508144544 | 60 | 93 | 4.0 | 15.0 | 0.00 | 0.00 | 0.00 | 52 | 1026.7 |
| 20260508144036 | 60 | 98 | 6.0 | 15.0 | 0.00 | 0.00 | 0.00 | 52 | 1026.6 |
| 20260508143537 | 60 | 97 | 6.0 | 15.0 | 0.00 | 0.00 | 0.00 | 52 | 1026.7 |
| 20260508143055 | 60 | 119 | 4.0 | 14.0 | 0.00 | 0.00 | 0.00 | 53 | 1026.7 |
| 20260508142536 | 60 | 81 | 4.0 | 17.0 | 0.00 | 0.00 | 0.00 | 52 | 1026.7 |
| 20260508142036 | 60 | 85 | 5.0 | 18.0 | 0.00 | 0.00 | 0.00 | 53 | 1026.5 |
| 20260508141544 | 60 | 58 | 5.0 | 18.0 | 0.00 | 0.00 | 0.00 | 53 | 1026.6 |
| 20260508141035 | 60 | 98 | 6.0 | 18.0 | 0.00 | 0.00 | 0.00 | 53 | 1026.7 |
| 20260508140536 | 60 | 64 | 6.0 | 16.0 | 0.00 | 0.00 | 0.00 | 53 | 1026.6 |
| 20260508140054 | 60 | 135 | 6.0 | 16.0 | 0.00 | 0.00 | 0.00 | 53 | 1026.5 |
| 20260508135538 | 60 | 110 | 7.0 | 16.0 | 0.00 | 0.00 | 0.00 | 53 | 1026.5 |
| 20260508135036 | 60 | 57 | 6.0 | 16.0 | 0.00 | 0.00 | 0.00 | 53 | 1026.5 |
| 20260508134541 | 61 | 10 | 6.0 | 13.0 | 0.00 | 0.00 | 0.00 | 53 | 1026.6 |
| 20260508134036 | 61 | 39 | 6.0 | 14.0 | 0.00 | 0.00 | 0.00 | 54 | 1026.3 |
| 20260508133539 | 61 | 77 | 5.0 | 14.0 | 0.00 | 0.00 | 0.00 | 54 | 1026.4 |
| 20260508133055 | 61 | 72 | 7.0 | 18.0 | 0.00 | 0.00 | 0.00 | 54 | 1026.3 |
| 20260508132536 | 61 | 77 | 5.0 | 18.0 | 0.00 | 0.00 | 0.00 | 55 | 1026.4 |
| 20260508132036 | 60 | 82 | 7.0 | 18.0 | 0.00 | 0.00 | 0.00 | 55 | 1026.3 |
| 20260508131550 | 60 | 56 | 3.0 | 14.0 | 0.00 | 0.00 | 0.00 | 56 | 1026.3 |
| 20260508131036 | 60 | 83 | 5.0 | 13.0 | 0.00 | 0.00 | 0.00 | 56 | 1026.4 |
| 20260508130536 | 61 | 119 | 4.0 | 11.0 | 0.00 | 0.00 | 0.00 | 56 | 1026.4 |
| 20260508130100 | 61 | 99 | 4.0 | 11.0 | 0.00 | 0.00 | 0.00 | 56 | 1026.3 |
| 20260508125536 | 61 | 37 | 5.0 | 11.0 | 0.00 | 0.00 | 0.00 | 56 | 1026.2 |
| 20260508125036 | 61 | 69 | 3.0 | 11.0 | 0.00 | 0.00 | 0.00 | 56 | 1026.2 |
| 20260508124547 | 61 | 61 | 5.0 | 15.0 | 0.00 | 0.00 | 0.00 | 56 | 1026.2 |
| 20260508124039 | 61 | 34 | 5.0 | 15.0 | 0.00 | 0.00 | 0.00 | 55 | 1026.2 |
| 20260508123536 | 61 | 97 | 6.0 | 15.0 | 0.00 | 0.00 | 0.00 | 56 | 1026.2 |
| 20260508123052 | 61 | 95 | 5.0 | 13.0 | 0.00 | 0.00 | 0.00 | 55 | 1026.1 |
| 20260508122537 | 61 | 64 | 5.0 | 14.0 | 0.00 | 0.00 | 0.00 | 55 | 1026.3 |
| 20260508122036 | 61 | 35 | 4.0 | 17.0 | 0.00 | 0.00 | 0.00 | 56 | 1026.1 |
| 20260508121547 | 61 | 139 | 3.0 | 17.0 | 0.00 | 0.00 | 0.00 | 55 | 1026.2 |
| 20260508121036 | 61 | 115 | 6.0 | 17.0 | 0.00 | 0.00 | 0.00 | 55 | 1026.3 |
| 20260508120536 | 61 | 52 | 4.0 | 13.0 | 0.00 | 0.00 | 0.00 | 55 | 1026.2 |
| 20260508120049 | 62 | 47 | 4.0 | 12.0 | 0.00 | 0.00 | 0.00 | 55 | 1026.3 |
| 20260508115535 | 62 | 81 | 3.0 | 11.0 | 0.00 | 0.00 | 0.00 | 55 | 1026.4 |
| 20260508115037 | 62 | 59 | 4.0 | 11.0 | 0.00 | 0.00 | 0.00 | 55 | 1026.3 |
| 20260508114552 | 62 | 87 | 3.0 | 10.0 | 0.00 | 0.00 | 0.00 | 55 | 1026.4 |
| 20260508114037 | 62 | 142 | 3.0 | 11.0 | 0.00 | 0.00 | 0.00 | 55 | 1026.3 |
| 20260508113538 | 62 | 110 | 3.0 | 11.0 | 0.00 | 0.00 | 0.00 | 55 | 1026.4 |
| 20260508113046 | 62 | 91 | 4.0 | 11.0 | 0.00 | 0.00 | 0.00 | 55 | 1026.4 |
| 20260508112536 | 62 | 45 | 4.0 | 9.0 | 0.00 | 0.00 | 0.00 | 55 | 1026.4 |
| 20260508112036 | 62 | 64 | 2.0 | 9.0 | 0.00 | 0.00 | 0.00 | 55 | 1026.3 |
| 20260508111552 | 62 | 90 | 3.0 | 9.0 | 0.00 | 0.00 | 0.00 | 54 | 1026.4 |
| 20260508111036 | 62 | 93 | 3.0 | 9.0 | 0.00 | 0.00 | 0.00 | 54 | 1026.4 |
| 20260508110536 | 62 | 41 | 3.0 | 9.0 | 0.00 | 0.00 | 0.00 | 54 | 1026.4 |
| 20260508110044 | 63 | 46 | 0.0 | 10.0 | 0.00 | 0.00 | 0.00 | 54 | 1026.6 |
| 20260508105536 | 63 | 0 | 2.0 | 12.0 | 0.00 | 0.00 | 0.00 | 53 | 1026.5 |
| 20260508105039 | 63 | 77 | 4.0 | 12.0 | 0.00 | 0.00 | 0.00 | 53 | 1026.5 |
| 20260508104558 | 63 | 93 | 3.0 | 11.0 | 0.00 | 0.00 | 0.00 | 54 | 1026.5 |
| 20260508104036 | 63 | 107 | 3.0 | 11.0 | 0.00 | 0.00 | 0.00 | 53 | 1026.5 |
| 20260508103537 | 63 | 72 | 3.0 | 11.0 | 0.00 | 0.00 | 0.00 | 53 | 1026.5 |
| 20260508103051 | 63 | 68 | 4.0 | 11.0 | 0.00 | 0.00 | 0.00 | 53 | 1026.4 |
| 20260508102536 | 63 | 84 | 2.0 | 11.0 | 0.00 | 0.00 | 0.00 | 53 | 1026.4 |
| 20260508102036 | 64 | 95 | 2.0 | 11.0 | 0.00 | 0.00 | 0.00 | 53 | 1026.4 |
| 20260508101547 | 64 | 87 | 3.0 | 11.0 | 0.00 | 0.00 | 0.00 | 52 | 1026.4 |
| 20260508101036 | 64 | 93 | 3.0 | 9.0 | 0.00 | 0.00 | 0.00 | 52 | 1026.3 |
| 20260508100537 | 64 | 87 | 3.0 | 11.0 | 0.00 | 0.00 | 0.00 | 52 | 1026.3 |
| 20260508100044 | 65 | 68 | 4.0 | 11.0 | 0.00 | 0.00 | 0.00 | 51 | 1026.4 |
| 20260508095536 | 65 | 77 | 2.0 | 10.0 | 0.00 | 0.00 | 0.00 | 51 | 1026.4 |
| 20260508095039 | 65 | 101 | 4.0 | 11.0 | 0.00 | 0.00 | 0.00 | 51 | 1026.4 |
| 20260508094547 | 65 | 74 | 3.0 | 13.0 | 0.00 | 0.00 | 0.00 | 51 | 1026.4 |
| 20260508094037 | 65 | 58 | 4.0 | 13.0 | 0.00 | 0.00 | 0.00 | 51 | 1026.4 |
| 20260508093537 | 66 | 101 | 6.0 | 13.0 | 0.00 | 0.00 | 0.00 | 50 | 1026.3 |
| 20260508093045 | 66 | 117 | 3.0 | 12.0 | 0.00 | 0.00 | 0.00 | 51 | 1026.4 |
| 20260508092536 | 66 | 115 | 6.0 | 13.0 | 0.00 | 0.00 | 0.00 | 51 | 1026.3 |
| 20260508092036 | 66 | 61 | 4.0 | 13.0 | 0.00 | 0.00 | 0.00 | 51 | 1026.3 |
| 20260508091556 | 66 | 82 | 3.0 | 13.0 | 0.00 | 0.00 | 0.00 | 51 | 1026.3 |
| 20260508091036 | 66 | 82 | 2.0 | 9.0 | 0.00 | 0.00 | 0.00 | 51 | 1026.3 |
| 20260508090536 | 67 | 83 | 2.0 | 9.0 | 0.00 | 0.00 | 0.00 | 50 | 1026.2 |
| 20260508090054 | 67 | 83 | 4.0 | 11.0 | 0.00 | 0.00 | 0.00 | 50 | 1026.1 |
| 20260508085535 | 67 | 85 | 3.0 | 11.0 | 0.00 | 0.00 | 0.00 | 49 | 1026.0 |
| 20260508085035 | 68 | 85 | 5.0 | 11.0 | 0.00 | 0.00 | 0.00 | 49 | 1026.0 |
| 20260508084548 | 68 | 75 | 4.0 | 11.0 | 0.00 | 0.00 | 0.00 | 49 | 1025.9 |
| 20260508084036 | 68 | 45 | 4.0 | 11.0 | 0.00 | 0.00 | 0.00 | 48 | 1025.9 |
| 20260508083535 | 68 | 29 | 4.0 | 17.0 | 0.00 | 0.00 | 0.00 | 48 | 1025.8 |
| 20260508083039 | 69 | 61 | 3.0 | 17.0 | 0.00 | 0.00 | 0.00 | 48 | 1026.1 |
| 20260508082535 | 69 | 64 | 5.0 | 17.0 | 0.00 | 0.00 | 0.00 | 48 | 1026.0 |
| 20260508082036 | 69 | 52 | 3.0 | 18.0 | 0.00 | 0.00 | 0.00 | 48 | 1026.0 |
| 20260508081552 | 69 | 112 | 5.0 | 18.0 | 0.00 | 0.00 | 0.00 | 47 | 1026.0 |
| 20260508081036 | 70 | 62 | 8.0 | 17.0 | 0.00 | 0.00 | 0.00 | 47 | 1026.0 |
| 20260508080536 | 70 | 81 | 5.0 | 16.0 | 0.00 | 0.00 | 0.00 | 47 | 1025.9 |
| 20260508080053 | 70 | 56 | 5.0 | 16.0 | 0.00 | 0.00 | 0.00 | 48 | 1025.9 |
| 20260508075535 | 71 | 55 | 3.0 | 16.0 | 0.00 | 0.00 | 0.00 | 47 | 1026.0 |
| 20260508075037 | 71 | 87 | 4.0 | 14.0 | 0.00 | 0.00 | 0.00 | 48 | 1026.0 |
| 20260508074539 | 71 | 128 | 3.0 | 11.0 | 0.00 | 0.00 | 0.00 | 47 | 1026.0 |
| 20260508074036 | 72 | 37 | 3.0 | 13.0 | 0.00 | 0.00 | 0.00 | 47 | 1025.8 |
| 20260508073536 | 71 | 28 | 4.0 | 14.0 | 0.00 | 0.00 | 0.00 | 48 | 1025.9 |
| 20260508073045 | 71 | 41 | 6.0 | 14.0 | 0.00 | 0.00 | 0.00 | 47 | 1025.8 |
| 20260508072536 | 72 | 121 | 4.0 | 10.0 | 0.00 | 0.00 | 0.00 | 47 | 1025.9 |
| 20260508072037 | 71 | 0 | 3.0 | 11.0 | 0.00 | 0.00 | 0.00 | 47 | 1025.9 |
| 20260508071554 | 72 | 70 | 4.0 | 13.0 | 0.00 | 0.00 | 0.00 | 48 | 1025.9 |
| 20260508071036 | 71 | 35 | 3.0 | 14.0 | 0.00 | 0.00 | 0.00 | 47 | 1026.0 |
| 20260508070537 | 71 | 20 | 5.0 | 14.0 | 0.00 | 0.00 | 0.00 | 47 | 1025.9 |
| 20260508070058 | 72 | 97 | 3.0 | 12.0 | 0.00 | 0.00 | 0.00 | 46 | 1025.8 |
| 20260508065540 | 72 | 34 | 3.0 | 14.0 | 0.00 | 0.00 | 0.00 | 46 | 1026.0 |
| 20260508065037 | 72 | 134 | 3.0 | 15.0 | 0.00 | 0.00 | 0.00 | 46 | 1026.0 |
| 20260508064542 | 71 | 75 | 4.0 | 15.0 | 0.00 | 0.00 | 0.00 | 46 | 1025.9 |
| 20260508064038 | 72 | 92 | 3.0 | 11.0 | 0.00 | 0.00 | 0.00 | 46 | 1026.0 |
| 20260508063536 | 72 | 83 | 3.0 | 15.0 | 0.00 | 0.00 | 0.00 | 46 | 1026.0 |
| 20260508063039 | 71 | 332 | 3.0 | 15.0 | 0.00 | 0.00 | 0.00 | 48 | 1025.9 |
| 20260508062536 | 71 | 93 | 6.0 | 13.0 | 0.00 | 0.00 | 0.00 | 47 | 1026.0 |
| 20260508062036 | 71 | 93 | 6.0 | 15.0 | 0.00 | 0.00 | 0.00 | 48 | 1026.0 |
| 20260508061540 | 71 | 31 | 5.0 | 15.0 | 0.00 | 0.00 | 0.00 | 47 | 1026.2 |
| 20260508061037 | 71 | 44 | 4.0 | 15.0 | 0.00 | 0.00 | 0.00 | 48 | 1026.2 |
| 20260508060537 | 71 | 98 | 4.0 | 13.0 | 0.00 | 0.00 | 0.00 | 48 | 1026.2 |
| 20260508060045 | 71 | 15 | 3.0 | 13.0 | 0.00 | 0.00 | 0.00 | 48 | 1026.3 |
| 20260508055539 | 71 | 339 | 4.0 | 16.0 | 0.00 | 0.00 | 0.00 | 48 | 1026.3 |
| 20260508055037 | 71 | 81 | 6.0 | 16.0 | 0.00 | 0.00 | 0.00 | 48 | 1026.5 |
| 20260508054547 | 70 | 87 | 4.0 | 13.0 | 0.00 | 0.00 | 0.00 | 50 | 1026.4 |
| 20260508054037 | 70 | 102 | 4.0 | 16.0 | 0.00 | 0.00 | 0.00 | 51 | 1026.4 |
| 20260508053539 | 70 | 49 | 6.0 | 16.0 | 0.00 | 0.00 | 0.00 | 49 | 1026.5 |
| 20260508053050 | 70 | 42 | 5.0 | 13.0 | 0.00 | 0.00 | 0.00 | 49 | 1026.4 |
| 20260508052538 | 70 | 133 | 4.0 | 13.0 | 0.00 | 0.00 | 0.00 | 52 | 1026.6 |
| 20260508052036 | 71 | 67 | 4.0 | 13.0 | 0.00 | 0.00 | 0.00 | 51 | 1026.7 |
| 20260508051542 | 70 | 1 | 5.0 | 15.0 | 0.00 | 0.00 | 0.00 | 52 | 1026.8 |
| 20260508051036 | 69 | 356 | 6.0 | 15.0 | 0.00 | 0.00 | 0.00 | 52 | 1026.9 |
| 20260508050538 | 70 | 99 | 4.0 | 13.0 | 0.00 | 0.00 | 0.00 | 53 | 1026.9 |
| 20260508050047 | 70 | 88 | 4.0 | 13.0 | 0.00 | 0.00 | 0.00 | 54 | 1027.0 |
| 20260508045536 | 69 | 64 | 3.0 | 11.0 | 0.00 | 0.00 | 0.00 | 54 | 1027.0 |
| 20260508045038 | 70 | 101 | 4.0 | 11.0 | 0.00 | 0.00 | 0.00 | 53 | 1027.1 |
| 20260508044548 | 70 | 330 | 5.0 | 9.0 | 0.00 | 0.00 | 0.00 | 53 | 1027.1 |
| 20260508044038 | 70 | 324 | 4.0 | 10.0 | 0.00 | 0.00 | 0.00 | 53 | 1027.3 |
| 20260508043536 | 70 | 4 | 3.0 | 15.0 | 0.00 | 0.00 | 0.00 | 53 | 1027.3 |
| 20260508043045 | 69 | 105 | 5.0 | 15.0 | 0.00 | 0.00 | 0.00 | 54 | 1027.6 |
| 20260508042536 | 69 | 19 | 4.0 | 14.0 | 0.00 | 0.00 | 0.00 | 55 | 1027.7 |
| 20260508042036 | 69 | 5 | 4.0 | 12.0 | 0.00 | 0.00 | 0.00 | 55 | 1027.7 |
| 20260508041541 | 69 | 18 | 4.0 | 13.0 | 0.00 | 0.00 | 0.00 | 55 | 1027.9 |
| 20260508041036 | 68 | 45 | 5.0 | 16.0 | 0.00 | 0.00 | 0.00 | 56 | 1028.0 |
| 20260508040536 | 67 | 70 | 4.0 | 16.0 | 0.00 | 0.00 | 0.00 | 56 | 1028.3 |
| 20260508040043 | 68 | 131 | 5.0 | 12.0 | 0.00 | 0.00 | 0.00 | 55 | 1028.3 |
| 20260508035536 | 69 | 46 | 3.0 | 12.0 | 0.00 | 0.00 | 0.00 | 55 | 1028.3 |
| 20260508035036 | 68 | 69 | 3.0 | 13.0 | 0.00 | 0.00 | 0.00 | 58 | 1028.5 |
| 20260508034548 | 67 | 79 | 4.0 | 13.0 | 0.00 | 0.00 | 0.00 | 58 | 1028.5 |
| 20260508034036 | 68 | 89 | 3.0 | 10.0 | 0.00 | 0.00 | 0.00 | 58 | 1028.5 |
| 20260508033535 | 67 | 360 | 3.0 | 10.0 | 0.00 | 0.00 | 0.00 | 59 | 1028.6 |
| 20260508033109 | 67 | 18 | 3.0 | 13.0 | 0.00 | 0.00 | 0.00 | 59 | 1028.9 |
| 20260508032536 | 66 | 355 | 5.0 | 17.0 | 0.00 | 0.00 | 0.00 | 60 | 1028.9 |
| 20260508032035 | 66 | 75 | 7.0 | 17.0 | 0.00 | 0.00 | 0.00 | 59 | 1029.0 |
| 20260508031540 | 67 | 348 | 5.0 | 16.0 | 0.00 | 0.00 | 0.00 | 59 | 1029.0 |
| 20260508031039 | 66 | 351 | 4.0 | 12.0 | 0.00 | 0.00 | 0.00 | 59 | 1029.1 |
| 20260508030535 | 66 | 33 | 2.0 | 8.0 | 0.00 | 0.00 | 0.00 | 60 | 1029.1 |
| 20260508030042 | 67 | 349 | 3.0 | 11.0 | 0.00 | 0.00 | 0.00 | 59 | 1029.1 |
| 20260508025538 | 66 | 35 | 4.0 | 14.0 | 0.00 | 0.00 | 0.00 | 60 | 1029.1 |
| 20260508025037 | 66 | 89 | 4.0 | 14.0 | 0.00 | 0.00 | 0.00 | 61 | 1029.2 |
| 20260508024613 | 65 | 47 | 4.0 | 14.0 | 0.00 | 0.00 | 0.00 | 61 | 1029.2 |
| 20260508024039 | 65 | 32 | 4.0 | 11.0 | 0.00 | 0.00 | 0.00 | 62 | 1029.4 |
| 20260508023537 | 65 | 33 | 4.0 | 12.0 | 0.00 | 0.00 | 0.00 | 62 | 1029.4 |
| 20260508023049 | 65 | 99 | 5.0 | 12.0 | 0.00 | 0.00 | 0.00 | 62 | 1029.4 |
| 20260508022537 | 64 | 84 | 4.0 | 10.0 | 0.00 | 0.00 | 0.00 | 62 | 1029.4 |
| 20260508022036 | 64 | 14 | 3.0 | 8.0 | 0.00 | 0.00 | 0.00 | 64 | 1029.3 |
| 20260508021548 | 64 | 79 | 3.0 | 16.0 | 0.00 | 0.00 | 0.00 | 64 | 1029.5 |
| 20260508021035 | 63 | 25 | 2.0 | 16.0 | 0.00 | 0.00 | 0.00 | 66 | 1029.4 |
| 20260508020536 | 62 | 1 | 4.0 | 14.0 | 0.00 | 0.00 | 0.00 | 66 | 1029.4 |
| 20260508020103 | 62 | 21 | 5.0 | 14.0 | 0.00 | 0.00 | 0.00 | 67 | 1029.4 |
| 20260508015536 | 62 | 73 | 5.0 | 13.0 | 0.00 | 0.00 | 0.00 | 67 | 1029.6 |
| 20260508015036 | 62 | 15 | 2.0 | 15.0 | 0.00 | 0.00 | 0.00 | 67 | 1029.6 |
| 20260508014540 | 61 | 72 | 5.0 | 15.0 | 0.00 | 0.00 | 0.00 | 67 | 1029.6 |
| 20260508014036 | 61 | 15 | 3.0 | 9.0 | 0.00 | 0.00 | 0.00 | 67 | 1029.8 |
| 20260508013536 | 61 | 108 | 4.0 | 14.0 | 0.00 | 0.00 | 0.00 | 66 | 1029.9 |
| 20260508013101 | 61 | 25 | 2.0 | 14.0 | 0.00 | 0.00 | 0.00 | 67 | 1029.8 |
| 20260508012535 | 61 | 73 | 4.0 | 11.0 | 0.00 | 0.00 | 0.00 | 66 | 1029.8 |
| 20260508012037 | 61 | 24 | 2.0 | 11.0 | 0.00 | 0.00 | 0.00 | 67 | 1029.9 |
| 20260508011545 | 61 | 26 | 4.0 | 11.0 | 0.00 | 0.00 | 0.00 | 68 | 1029.9 |
| 20260508011038 | 60 | 357 | 3.0 | 11.0 | 0.00 | 0.00 | 0.00 | 68 | 1030.0 |
| 20260508010536 | 60 | 63 | 3.0 | 12.0 | 0.00 | 0.00 | 0.00 | 69 | 1030.1 |
| 20260508010042 | 59 | 88 | 2.0 | 12.0 | 0.00 | 0.00 | 0.00 | 70 | 1030.1 |
| 20260508005535 | 59 | 77 | 3.0 | 16.0 | 0.00 | 0.00 | 0.00 | 70 | 1030.1 |
| 20260508005036 | 59 | 41 | 4.0 | 16.0 | 0.00 | 0.00 | 0.00 | 70 | 1030.0 |
| 20260508004546 | 58 | 351 | 4.0 | 16.0 | 0.00 | 0.00 | 0.00 | 71 | 1030.0 |
| 20260508004036 | 58 | 87 | 3.0 | 9.0 | 0.00 | 0.00 | 0.00 | 72 | 1030.0 |
| 20260508003536 | 57 | 40 | 3.0 | 9.0 | 0.00 | 0.00 | 0.00 | 72 | 1030.0 |
| 20260508003050 | 57 | 91 | 2.0 | 11.0 | 0.00 | 0.00 | 0.00 | 72 | 1030.0 |